GW4629 Weather Reports


Display with metric or nautical units.
time (UTC)temp
F
wind
direction
speed
MPH
gust
MPH
rain 1hr
in
rain 24hr
in
rain mn
in
humidity
%
barometer
mb
20260904181548 81 49 3.0 4.0 0.00 0.00 0.00 99 1025.3
20260904181048 81 49 3.0 4.0 0.00 0.00 0.00 99 1025.3
20260904180543 79 74 5.0 7.0 0.00 0.00 0.00 99 1025.6
20260904180038 79 74 5.0 7.0 0.00 0.00 0.00 99 1025.6
20260904175532 80 41 6.0 11.0 0.00 0.00 0.00 99 1025.3
20260904175031 80 41 6.0 11.0 0.00 0.00 0.00 99 1025.3
20260904174526 77 77 6.0 8.0 0.00 0.00 0.00 99 1025.5
20260904174023 77 77 6.0 8.0 0.00 0.00 0.00 99 1025.5
20260904173522 80 34 6.0 7.0 0.00 0.00 0.00 99 1025.3
20260904173018 80 34 6.0 7.0 0.00 0.00 0.00 99 1025.3
20260904172513 80 261 4.0 6.0 0.00 0.00 0.00 99 1025.5
20260904172012 80 261 4.0 6.0 0.00 0.00 0.00 99 1025.5
20260904171508 79 338 10.0 14.0 0.00 0.00 0.00 99 1025.3
20260904171004 79 338 10.0 14.0 0.00 0.00 0.00 99 1025.3
20260904170459 78 339 10.0 11.0 0.00 0.00 0.00 99 1025.3
20260904165955 78 339 10.0 11.0 0.00 0.00 0.00 99 1025.3
20260904165454 78 62 5.0 6.0 0.00 0.00 0.00 99 1025.3
20260904164953 78 62 5.0 6.0 0.00 0.00 0.00 99 1025.3
20260904164448 76 68 6.0 7.0 0.00 0.00 0.00 99 1025.3
20260904163944 76 68 6.0 7.0 0.00 0.00 0.00 99 1025.3
20260904163443 75 64 11.0 15.0 0.00 0.00 0.00 99 1025.1
20260904162938 75 64 11.0 15.0 0.00 0.00 0.00 99 1025.1
20260904162433 75 16 9.0 13.0 0.00 0.00 0.00 99 1025.2
20260904161928 75 16 9.0 13.0 0.00 0.00 0.00 99 1025.2
20260904161423 75 85 6.0 8.0 0.00 0.00 0.00 99 1025.2
20260904160919 75 85 6.0 8.0 0.00 0.00 0.00 99 1025.2
20260904160414 75 29 4.0 4.0 0.00 0.00 0.00 99 1025.2
20260904155909 75 29 4.0 4.0 0.00 0.00 0.00 99 1025.2
20260904155403 74 29 12.0 14.0 0.00 0.00 0.00 99 1024.8
20260904154902 74 29 12.0 14.0 0.00 0.00 0.00 99 1024.8
20260904154356 73 56 12.0 15.0 0.00 0.00 0.00 99 1024.8
20260904153852 73 56 12.0 15.0 0.00 0.00 0.00 99 1024.8
20260904153347 73 112 12.0 16.0 0.00 0.00 0.00 99 1024.8
20260904152844 73 112 12.0 16.0 0.00 0.00 0.00 99 1024.8
20260904152338 73 51 6.0 8.0 0.00 0.00 0.00 99 1024.7
20260904151833 73 51 6.0 8.0 0.00 0.00 0.00 99 1024.7
20260904151332 73 64 12.0 14.0 0.00 0.00 0.00 99 1024.7
20260904150829 73 64 12.0 14.0 0.00 0.00 0.00 99 1024.7
20260904150323 72 71 6.0 7.0 0.00 0.00 0.00 99 1024.6
20260904145821 72 71 6.0 7.0 0.00 0.00 0.00 99 1024.6
20260904145318 72 56 8.0 11.0 0.00 0.00 0.00 99 1024.5
20260904144813 71 71 6.0 9.0 0.00 0.00 0.00 99 1024.7
20260904144308 71 71 6.0 9.0 0.00 0.00 0.00 99 1024.7
20260904143803 71 104 3.0 3.0 0.00 0.00 0.00 99 1024.5
20260904143300 71 104 3.0 3.0 0.00 0.00 0.00 99 1024.5
20260904142756 70 67 6.0 11.0 0.00 0.00 0.00 99 1024.3
20260904142252 70 67 6.0 11.0 0.00 0.00 0.00 99 1024.3
20260904141752 69 64 7.0 9.0 0.00 0.00 0.00 99 1024.6
20260904141247 69 64 7.0 9.0 0.00 0.00 0.00 99 1024.6
20260904140742 69 97 16.0 18.0 0.00 0.00 0.00 99 1024.3
20260904140238 69 97 16.0 18.0 0.00 0.00 0.00 99 1024.3
20260904135736 68 99 8.0 9.0 0.00 0.00 0.00 99 1024.5
20260904135232 68 99 8.0 9.0 0.00 0.00 0.00 99 1024.5
20260904134728 68 146 6.0 7.0 0.00 0.00 0.00 99 1024.5
20260904134227 68 146 6.0 7.0 0.00 0.00 0.00 99 1024.5
20260904133722 67 72 8.0 9.0 0.00 0.00 0.00 99 1023.9
20260904133219 67 72 8.0 9.0 0.00 0.00 0.00 99 1023.9
20260904132719 67 78 14.0 15.0 0.00 0.00 0.00 99 1023.7
20260904132214 67 78 14.0 15.0 0.00 0.00 0.00 99 1023.7
20260904131713 67 127 13.0 15.0 0.00 0.00 0.00 99 1023.3
20260904131209 67 127 13.0 15.0 0.00 0.00 0.00 99 1023.3
20260904130709 67 92 9.0 10.0 0.00 0.00 0.00 99 1023.6
20260904130208 67 92 9.0 10.0 0.00 0.00 0.00 99 1023.6
20260904125704 65 125 9.0 9.0 0.00 0.00 0.00 99 1023.6
20260904125159 65 125 9.0 9.0 0.00 0.00 0.00 99 1023.6
20260904124654 66 123 8.0 9.0 0.00 0.00 0.00 99 1023.3
20260904124150 66 123 8.0 9.0 0.00 0.00 0.00 99 1023.3
20260904123650 65 118 9.0 13.0 0.00 0.00 0.00 99 1023.2
20260904123146 65 118 9.0 13.0 0.00 0.00 0.00 99 1023.2
20260904122640 64 143 9.0 10.0 0.00 0.00 0.00 99 1023.1
20260904122135 64 143 9.0 10.0 0.00 0.00 0.00 99 1023.1
20260904121630 65 139 10.0 11.0 0.00 0.00 0.00 99 1022.9
20260904121126 65 139 10.0 11.0 0.00 0.00 0.00 99 1022.9
20260904120623 65 164 11.0 13.0 0.00 0.00 0.00 99 1023.2
20260904120119 65 164 11.0 13.0 0.00 0.00 0.00 99 1023.2
20260904115618 65 137 12.0 14.0 0.00 0.00 0.00 99 1023.3
20260904115114 65 137 12.0 14.0 0.00 0.00 0.00 99 1023.3
20260904114613 64 149 10.0 13.0 0.00 0.00 0.00 99 1023.1
20260904114109 64 149 10.0 13.0 0.00 0.00 0.00 99 1023.1
20260904113608 65 113 12.0 14.0 0.00 0.00 0.00 99 1023.2
20260904113107 65 113 12.0 14.0 0.00 0.00 0.00 99 1023.2
20260904112603 65 102 13.0 16.0 0.00 0.00 0.00 99 1023.3
20260904112059 65 102 13.0 16.0 0.00 0.00 0.00 99 1023.3
20260904111554 65 135 17.0 19.0 0.00 0.00 0.00 99 1023.1
20260904111050 65 135 17.0 19.0 0.00 0.00 0.00 99 1023.1
20260904110544 66 157 11.0 13.0 0.00 0.00 0.00 99 1023.2
20260904110040 66 157 11.0 13.0 0.00 0.00 0.00 99 1023.2
20260904105539 65 150 15.0 16.0 0.00 0.00 0.00 99 1023.2
20260904105034 65 150 15.0 16.0 0.00 0.00 0.00 99 1023.2
20260904104530 66 115 10.0 11.0 0.00 0.00 0.00 99 1023.3
20260904104026 66 115 10.0 11.0 0.00 0.00 0.00 99 1023.3
20260904103521 66 109 13.0 16.0 0.00 0.00 0.00 99 1022.8
20260904103017 66 109 13.0 16.0 0.00 0.00 0.00 99 1022.8
20260904102513 65 130 15.0 17.0 0.00 0.00 0.00 99 1022.8
20260904102008 65 130 15.0 17.0 0.00 0.00 0.00 99 1022.8
20260904101505 65 170 15.0 16.0 0.00 0.00 0.00 99 1023.1
20260904101000 65 170 15.0 16.0 0.00 0.00 0.00 99 1023.1
20260904100456 64 127 15.0 17.0 0.00 0.00 0.00 99 1022.9
20260904095955 64 127 15.0 17.0 0.00 0.00 0.00 99 1022.9
20260904095450 64 94 12.0 14.0 0.00 0.00 0.00 99 1022.9
20260904094944 64 94 12.0 14.0 0.00 0.00 0.00 99 1022.9
20260904094440 64 113 11.0 13.0 0.00 0.00 0.00 99 1023.1
20260904093935 64 113 11.0 13.0 0.00 0.00 0.00 99 1023.1
20260904093431 64 127 12.0 14.0 0.00 0.00 0.00 99 1022.9
20260904092926 64 127 12.0 14.0 0.00 0.00 0.00 99 1022.9
20260904092423 62 95 14.0 18.0 0.00 0.00 0.00 99 1022.9
20260904091919 62 95 14.0 18.0 0.00 0.00 0.00 99 1022.9
20260904091414 61 112 12.0 14.0 0.00 0.00 0.00 99 1022.8
20260904090909 61 112 12.0 14.0 0.00 0.00 0.00 99 1022.8
20260904090405 61 132 13.0 15.0 0.00 0.00 0.00 99 1022.7
20260904085900 61 132 13.0 15.0 0.00 0.00 0.00 99 1022.7
20260904085355 60 78 8.0 9.0 0.00 0.00 0.00 99 1023.1
20260904084855 60 78 8.0 9.0 0.00 0.00 0.00 99 1023.1
20260904084351 59 131 6.0 8.0 0.00 0.00 0.00 99 1022.8
20260904083847 59 131 6.0 8.0 0.00 0.00 0.00 99 1022.8
20260904083343 58 155 5.0 6.0 0.00 0.00 0.00 99 1022.8
20260904082839 58 155 5.0 6.0 0.00 0.00 0.00 99 1022.8
20260904082333 59 188 9.0 10.0 0.00 0.00 0.00 99 1022.7
20260904081828 59 188 9.0 10.0 0.00 0.00 0.00 99 1022.7
20260904081324 60 137 9.0 10.0 0.00 0.00 0.00 99 1022.9
20260904080820 60 137 9.0 10.0 0.00 0.00 0.00 99 1022.9
20260904080315 60 149 12.0 15.0 0.00 0.00 0.00 99 1022.9
20260904075812 60 149 12.0 15.0 0.00 0.00 0.00 99 1022.9
20260904075312 60 150 9.0 10.0 0.00 0.00 0.00 99 1023.1
20260904074810 60 150 9.0 10.0 0.00 0.00 0.00 99 1023.1
20260904074306 60 154 11.0 11.0 0.00 0.00 0.00 99 1023.2
20260904073801 60 154 11.0 11.0 0.00 0.00 0.00 99 1023.2
20260904073257 60 137 9.0 10.0 0.00 0.00 0.00 99 1023.3
20260904072753 60 137 9.0 10.0 0.00 0.00 0.00 99 1023.3
20260904072252 60 139 14.0 15.0 0.00 0.00 0.00 99 1023.1
20260904071748 60 139 14.0 15.0 0.00 0.00 0.00 99 1023.1
20260904071248 60 141 11.0 11.0 0.00 0.00 0.00 99 1023.2
20260904070743 60 141 11.0 11.0 0.00 0.00 0.00 99 1023.2
20260904070243 61 144 9.0 9.0 0.00 0.00 0.00 99 1023.3
20260904065743 61 144 9.0 9.0 0.00 0.00 0.00 99 1023.3
20260904065239 61 132 11.0 11.0 0.00 0.00 0.00 99 1023.7
20260904064739 61 132 11.0 11.0 0.00 0.00 0.00 99 1023.7
20260904064234 61 159 12.0 14.0 0.00 0.00 0.00 99 1023.3
20260904063731 61 159 12.0 14.0 0.00 0.00 0.00 99 1023.3
20260904063226 61 158 9.0 11.0 0.00 0.00 0.00 99 1023.4
20260904062722 62 153 10.0 11.0 0.00 0.00 0.00 99 1023.4
20260904062218 62 153 10.0 11.0 0.00 0.00 0.00 99 1023.4
20260904061713 62 148 8.0 8.0 0.00 0.00 0.00 99 1023.6
20260904061209 62 148 8.0 8.0 0.00 0.00 0.00 99 1023.6
20260904060706 63 156 8.0 10.0 0.00 0.00 0.00 99 1023.7
20260904060201 63 156 8.0 10.0 0.00 0.00 0.00 99 1023.7
20260904055656 64 134 7.0 8.0 0.00 0.00 0.00 99 1023.8
20260904055151 64 134 7.0 8.0 0.00 0.00 0.00 99 1023.8
20260904054647 66 112 4.0 4.0 0.00 0.00 0.00 99 1023.9
20260904054143 66 112 4.0 4.0 0.00 0.00 0.00 99 1023.9
20260904053643 65 148 6.0 7.0 0.00 0.00 0.00 99 1023.8
20260904053138 65 148 6.0 7.0 0.00 0.00 0.00 99 1023.8
20260904052635 66 144 5.0 6.0 0.00 0.00 0.00 99 1023.6
20260904052130 66 144 5.0 6.0 0.00 0.00 0.00 99 1023.6
20260904051626 66 109 4.0 4.0 0.00 0.00 0.00 99 1023.8
20260904051121 66 109 4.0 4.0 0.00 0.00 0.00 99 1023.8
20260904050617 69 158 1.0 1.0 0.00 0.00 0.00 99 1023.7
20260904050113 69 158 1.0 1.0 0.00 0.00 0.00 99 1023.7
20260904045613 69 257 2.0 3.0 0.00 0.00 0.00 99 1023.8
20260904045107 69 257 2.0 3.0 0.00 0.00 0.00 99 1023.8
20260904044603 69 322 3.0 3.0 0.00 0.00 0.00 99 1023.8
20260904044059 69 322 3.0 3.0 0.00 0.00 0.00 99 1023.8
20260904043555 70 321 2.0 3.0 0.00 0.00 0.00 99 1023.9
20260904043051 70 321 2.0 3.0 0.00 0.00 0.00 99 1023.9
20260904042547 69 116 1.0 1.0 0.00 0.00 0.00 99 1024.3
20260904042042 69 116 1.0 1.0 0.00 0.00 0.00 99 1024.3
20260904041538 69 144 0.0 0.0 0.00 0.00 0.00 99 1024.2
20260904041034 69 144 0.0 0.0 0.00 0.00 0.00 99 1024.2
20260904040534 70 143 0.0 1.0 0.00 0.00 0.00 99 1024.3
20260904040031 70 143 0.0 1.0 0.00 0.00 0.00 99 1024.3
20260904035531 70 125 1.0 1.0 0.00 0.00 0.00 99 1024.1
20260904035030 70 125 1.0 1.0 0.00 0.00 0.00 99 1024.1
20260904034525 70 164 0.0 1.0 0.00 0.00 0.00 99 1024.1
20260904034021 70 164 0.0 1.0 0.00 0.00 0.00 99 1024.1
20260904033517 70 135 0.0 0.0 0.00 0.00 0.00 99 1024.2
20260904033014 70 135 0.0 0.0 0.00 0.00 0.00 99 1024.2
20260904032508 71 30 3.0 4.0 0.00 0.00 0.00 99 1024.2
20260904032008 71 30 3.0 4.0 0.00 0.00 0.00 99 1024.2
20260904031503 71 88 1.0 1.0 0.00 0.00 0.00 99 1024.1
20260904030959 71 88 1.0 1.0 0.00 0.00 0.00 99 1024.1
20260904030454 71 5 7.0 9.0 0.00 0.00 0.00 99 1024.1
20260904025949 71 5 7.0 9.0 0.00 0.00 0.00 99 1024.1
20260904025445 71 317 8.0 9.0 0.00 0.00 0.00 99 1023.8
20260904024939 71 317 8.0 9.0 0.00 0.00 0.00 99 1023.8
20260904024435 71 303 4.0 6.0 0.00 0.00 0.00 99 1023.8
20260904023930 71 303 4.0 6.0 0.00 0.00 0.00 99 1023.8
20260904023426 70 57 1.0 2.0 0.00 0.00 0.00 99 1023.8
20260904022926 70 57 1.0 2.0 0.00 0.00 0.00 99 1023.8
20260904022422 71 336 4.0 4.0 0.00 0.00 0.00 99 1023.3
20260904021919 71 336 4.0 4.0 0.00 0.00 0.00 99 1023.3
20260904021414 72 31 6.0 7.0 0.00 0.00 0.00 99 1023.2
20260904020909 72 31 6.0 7.0 0.00 0.00 0.00 99 1023.2
20260904020404 72 295 12.0 16.0 0.00 0.00 0.00 99 1023.1
20260904015902 72 295 12.0 16.0 0.00 0.00 0.00 99 1023.1
20260904015359 72 308 8.0 10.0 0.00 0.00 0.00 99 1023.3
20260904014857 72 308 8.0 10.0 0.00 0.00 0.00 99 1023.3
20260904014352 73 311 11.0 15.0 0.00 0.00 0.00 99 1022.7
20260904013848 73 311 11.0 15.0 0.00 0.00 0.00 99 1022.7
20260904013344 72 273 14.0 16.0 0.00 0.00 0.00 99 1022.8
20260904012839 72 273 14.0 16.0 0.00 0.00 0.00 99 1022.8
20260904012334 72 259 9.0 10.0 0.00 0.00 0.00 99 1023.1
20260904011833 72 259 9.0 10.0 0.00 0.00 0.00 99 1023.1
20260904011328 73 269 9.0 10.0 0.00 0.00 0.00 99 1022.9
20260904010823 73 269 9.0 10.0 0.00 0.00 0.00 99 1022.9
20260904010321 75 349 11.0 13.0 0.00 0.00 0.00 99 1022.8
20260904005820 75 349 11.0 13.0 0.00 0.00 0.00 99 1022.8
20260904005316 75 318 14.0 17.0 0.00 0.00 0.00 99 1022.6
20260904004811 75 318 14.0 17.0 0.00 0.00 0.00 99 1022.6
20260904004307 75 8 12.0 14.0 0.00 0.00 0.00 99 1022.8
20260904003802 75 8 12.0 14.0 0.00 0.00 0.00 99 1022.8
20260904003258 75 29 10.0 11.0 0.00 0.00 0.00 99 1022.6
20260904002753 75 29 10.0 11.0 0.00 0.00 0.00 99 1022.6
20260904002250 75 6 14.0 17.0 0.00 0.00 0.00 99 1022.8
20260904001749 75 6 14.0 17.0 0.00 0.00 0.00 99 1022.8
20260904001244 75 0 15.0 18.0 0.00 0.00 0.00 99 1022.7
20260904000739 75 0 15.0 18.0 0.00 0.00 0.00 99 1022.7
20260904000233 75 352 13.0 18.0 0.00 0.00 0.00 99 1022.6
20260903235727 75 352 13.0 18.0 0.00 0.00 0.00 99 1022.6
20260903235224 76 330 13.0 16.0 0.00 0.00 0.00 99 1022.7
20260903234723 76 330 13.0 16.0 0.00 0.00 0.00 99 1022.7
20260903234220 76 347 13.0 15.0 0.00 0.00 0.00 99 1022.6
20260903233715 76 347 13.0 15.0 0.00 0.00 0.00 99 1022.6
20260903233211 76 345 13.0 16.0 0.00 0.00 0.00 99 1022.6
20260903232710 76 345 13.0 16.0 0.00 0.00 0.00 99 1022.6
20260903232206 76 325 13.0 16.0 0.00 0.00 0.00 99 1022.6
20260903231705 76 325 13.0 16.0 0.00 0.00 0.00 99 1022.6
20260903231200 76 16 11.0 13.0 0.00 0.00 0.00 99 1022.3
20260903230656 76 16 11.0 13.0 0.00 0.00 0.00 99 1022.3
20260903230155 77 340 6.0 8.0 0.00 0.00 0.00 99 1022.6
20260903225652 77 340 6.0 8.0 0.00 0.00 0.00 99 1022.6
20260903225148 78 311 4.0 6.0 0.00 0.00 0.00 99 1022.4
20260903224644 78 311 4.0 6.0 0.00 0.00 0.00 99 1022.4
20260903224140 79 356 4.0 6.0 0.00 0.00 0.00 99 1022.8
20260903223636 79 358 6.0 7.0 0.00 0.00 0.00 99 1022.7
20260903223134 79 358 6.0 7.0 0.00 0.00 0.00 99 1022.7
20260903222629 80 7 9.0 10.0 0.00 0.00 0.00 99 1022.8
20260903222127 80 7 9.0 10.0 0.00 0.00 0.00 99 1022.8
20260903221624 81 57 9.0 11.0 0.00 0.00 0.00 99 1022.9
20260903221121 81 57 9.0 11.0 0.00 0.00 0.00 99 1022.9
20260903220620 82 104 3.0 3.0 0.00 0.00 0.00 99 1022.8
20260903220120 82 104 3.0 3.0 0.00 0.00 0.00 99 1022.8
20260903215619 80 44 7.0 10.0 0.00 0.00 0.00 99 1022.7
20260903215114 80 44 7.0 10.0 0.00 0.00 0.00 99 1022.7
20260903214613 81 217 9.0 15.0 0.00 0.00 0.00 99 1022.7
20260903214108 81 217 9.0 15.0 0.00 0.00 0.00 99 1022.7
20260903213603 80 93 5.0 6.0 0.00 0.00 0.00 99 1022.9
20260903213059 80 93 5.0 6.0 0.00 0.00 0.00 99 1022.9
20260903212555 81 341 2.0 3.0 0.00 0.00 0.00 99 1022.9
20260903212050 81 341 2.0 3.0 0.00 0.00 0.00 99 1022.9
20260903211545 81 15 5.0 7.0 0.00 0.00 0.00 99 1023.2
20260903211042 81 15 5.0 7.0 0.00 0.00 0.00 99 1023.2
20260903210542 80 205 5.0 7.0 0.00 0.00 0.00 99 1023.1
20260903210038 80 205 5.0 7.0 0.00 0.00 0.00 99 1023.1
20260903205537 81 60 6.0 8.0 0.00 0.00 0.00 99 1023.4
20260903205031 81 60 6.0 8.0 0.00 0.00 0.00 99 1023.4
20260903204527 80 89 7.0 8.0 0.00 0.00 0.00 99 1023.4
20260903204023 80 89 7.0 8.0 0.00 0.00 0.00 99 1023.4
20260903203518 79 43 7.0 9.0 0.00 0.00 0.00 99 1023.6
20260903203018 79 43 7.0 9.0 0.00 0.00 0.00 99 1023.6
20260903202514 78 34 7.0 8.0 0.00 0.00 0.00 99 1023.7
20260903202009 78 34 7.0 8.0 0.00 0.00 0.00 99 1023.7
20260903201504 78 358 9.0 13.0 0.00 0.00 0.00 99 1023.6
20260903201003 78 358 9.0 13.0 0.00 0.00 0.00 99 1023.6
20260903200458 80 229 3.0 4.0 0.00 0.00 0.00 99 1023.6
20260903195952 80 229 3.0 4.0 0.00 0.00 0.00 99 1023.6
20260903195449 77 84 6.0 9.0 0.00 0.00 0.00 99 1023.6
20260903194943 77 84 6.0 9.0 0.00 0.00 0.00 99 1023.6
20260903194439 76 336 3.0 4.0 0.00 0.00 0.00 99 1023.6
20260903193934 76 336 3.0 4.0 0.00 0.00 0.00 99 1023.6
20260903193430 80 316 4.0 4.0 0.00 0.00 0.00 99 1023.8
20260903192926 80 316 4.0 4.0 0.00 0.00 0.00 99 1023.8
20260903192422 79 357 8.0 13.0 0.00 0.00 0.00 99 1023.7
20260903191917 79 357 8.0 13.0 0.00 0.00 0.00 99 1023.7
20260903191414 77 77 11.0 13.0 0.00 0.00 0.00 99 1024.1
20260903190913 77 77 11.0 13.0 0.00 0.00 0.00 99 1024.1
20260903190407 76 74 5.0 7.0 0.00 0.00 0.00 99 1024.2
20260903185906 76 74 5.0 7.0 0.00 0.00 0.00 99 1024.2
20260903185402 77 76 3.0 4.0 0.00 0.00 0.00 99 1024.2
20260903184857 77 76 3.0 4.0 0.00 0.00 0.00 99 1024.2
20260903184355 76 107 4.0 6.0 0.00 0.00 0.00 99 1024.2
20260903183848 76 107 4.0 6.0 0.00 0.00 0.00 99 1024.2
20260903183343 75 61 10.0 14.0 0.00 0.00 0.00 99 1024.3
20260903182842 75 61 10.0 14.0 0.00 0.00 0.00 99 1024.3
20260903182341 73 66 12.0 14.0 0.00 0.00 0.00 99 1024.3
20260903181836 73 66 12.0 14.0 0.00 0.00 0.00 99 1024.3